Location: Augustenthal
(51.7167°N, 10.2833°E)
Time: 01:43:06
(UTC+00:00)

Cosmos 1455 Rocket - Pass Details

Date: 04 October 2021
Orbit: 606 x 628 km, 82.5° (Epoch: 19 October)

Event Time Altitude Azimuth Distance (km) Brightness Sun altitude
Exits shadow 19:50:50 21° 13° (NNE) 1,386 5.0 -27.9°
Drops below altitude 10° 19:52:22 10° 12° (NNE) 1,996 5.9 -28.1°
Sets 19:54:37 0° 12° (NNE) 2,910 6.8 -28.4°
